Weather History for KIRK - January, 2014

Change the Weather History Date:

Saturday, January 25, 2014

  Actual Average Record
Temperature  
Mean Temperature 33 °F 26 °F  
Max Temperature 44 °F 36 °F 62 °F (1934)
Min Temperature 21 °F 17 °F -15 °F (1940)
Degree Days  
Heating Degree Days 32 39  
Month to date heating degree days 919 975  
Since 1 July heating degree days 3410 3318  
Cooling Degree Days 0 0  
Month to date cooling degree days 0 0  
Year to date cooling degree days 0 0  
Moisture  
Dew Point 15 °F    
Average Humidity 57    
Maximum Humidity 92    
Minimum Humidity 21    
Precipitation  
Precipitation 0.02 in 0.05 in 0.37 in (1950)
Month to date precipitation 0.74 0.90  
Year to date precipitation 0.74 0.90  
Sea Level Pressure  
Sea Level Pressure 29.86 in    
Wind  
Wind Speed 13 mph (WNW)    
Max Wind Speed 29 mph    
Max Gust Speed 38 mph    
Visibility 9 miles    
Events Snow    
T = Trace of Precipitation, MM = Missing Value Source: NWS Daily Summary

Daily Weather History Graph

Daily Weather History Graph

Search for Another Location

Airport or City:

Trip Planner

Search our weather history database for the weather conditions in past years. The results will help you decide how hot, cold, wet, or windy it might be!

Date:

Astronomy

Jan. 25, 2014 Rise Set
Actual Time 7:24 AM CST 5:20 PM CST
Civil Twilight 6:55 AM CST 5:49 PM CST
Nautical Twilight 6:22 AM CST 6:22 PM CST
Astronomical Twilight 5:50 AM CST 6:54 PM CST
Moon 1:57 AM CST (1/25) 12:21 PM CST (1/25)
Length of Visible Light 10h 54m
Length of Day
9h 56m
Waning Crescent, 34% of the Moon is Illuminated
Jan 25
Waning Crescent
Jan 30
New
Feb 6
First Quarter
Feb 14
Full
Feb 22
Last Quarter

Hourly Weather History & Observations

Time (CST) Temp. Windchill Dew Point Humidity Pressure Visibility Wind Dir Wind Speed Gust Speed Precip Events Conditions
12:55 AM 42.1 °F 36.1 °F 21.9 °F 45% 29.67 in 10.0 mi West 10.4 mph - N/A   Overcast
1:55 AM 44.1 °F 35.9 °F 30.9 °F 60% 29.68 in 10.0 mi WNW 19.6 mph 29.9 mph N/A   Overcast
2:12 AM 44.1 °F 36.8 °F 30.9 °F 60% 29.66 in 10.0 mi WNW 16.1 mph 23.0 mph N/A   Overcast
2:55 AM 39.9 °F 30.0 °F 35.1 °F 83% 29.73 in 10.0 mi NW 21.9 mph 28.8 mph 0.00 in   Overcast
3:55 AM 37.9 °F 30.9 °F 34.0 °F 86% 29.75 in 10.0 mi NW 10.4 mph - N/A   Overcast
4:06 AM 37.9 °F 30.5 °F 34.0 °F 86% 29.72 in 6.0 mi NW 11.5 mph - N/A   Overcast
4:38 AM 37.0 °F 28.5 °F 34.0 °F 89% 29.74 in 4.0 mi NW 13.8 mph 23.0 mph 0.02 in   Overcast
4:55 AM 36.0 °F 28.0 °F 33.1 °F 89% 29.77 in 10.0 mi NW 11.5 mph 21.9 mph 0.02 in   Overcast
5:04 AM 36.0 °F 28.0 °F 33.1 °F 89% 29.74 in 10.0 mi NW 11.5 mph - N/A   Mostly Cloudy
5:55 AM 35.1 °F 28.6 °F 32.0 °F 89% 29.79 in 10.0 mi WNW 8.1 mph - N/A   Scattered Clouds
6:55 AM 37.0 °F 27.7 °F 28.9 °F 73% 29.81 in 10.0 mi WNW 16.1 mph 25.3 mph N/A   Mostly Cloudy
7:23 AM 37.0 °F 29.3 °F 30.0 °F 76% 29.79 in 10.0 mi NW 11.5 mph - N/A   Overcast
7:55 AM 35.1 °F 24.8 °F 27.0 °F 72% 29.86 in 10.0 mi NNW 17.3 mph 24.2 mph N/A   Overcast
8:26 AM 33.1 °F 20.9 °F 19.0 °F 56% 29.85 in 10.0 mi NW 21.9 mph 34.5 mph N/A   Overcast
8:37 AM 30.9 °F 17.2 °F 19.0 °F 61% 29.86 in 2.5 mi NW 25.3 mph 38.0 mph 0.00 in Snow Light Snow
8:44 AM 30.0 °F 16.6 °F 17.1 °F 59% 29.86 in 3.0 mi NW 23.0 mph 38.0 mph 0.00 in Snow Light Snow
8:55 AM 30.0 °F 18.7 °F 15.1 °F 54% 29.90 in 10.0 mi NW 16.1 mph 28.8 mph 0.00 in   Overcast
9:55 AM 30.9 °F 21.2 °F 12.9 °F 47% 29.94 in 10.0 mi NW 12.7 mph 26.5 mph N/A   Clear
10:55 AM 30.0 °F 15.2 °F 3.9 °F 33% 29.98 in 10.0 mi NW 28.8 mph 36.8 mph N/A   Clear
11:55 AM 28.9 °F 16.1 °F -2.9 °F 25% 30.00 in 10.0 mi NW 19.6 mph 27.6 mph N/A   Clear
12:55 PM 28.9 °F 17.3 °F -2.9 °F 25% 29.99 in 10.0 mi NW 16.1 mph 27.6 mph N/A   Clear
1:55 PM 28.9 °F 16.5 °F -2.0 °F 26% 30.00 in 10.0 mi NW 18.4 mph 28.8 mph N/A   Clear
2:55 PM 28.9 °F 16.9 °F -2.9 °F 25% 30.00 in 10.0 mi WNW 17.3 mph - N/A   Clear
3:55 PM 30.0 °F 20.0 °F -5.1 °F 22% 29.99 in 10.0 mi NW 12.7 mph - N/A   Clear
4:55 PM 28.0 °F 20.0 °F -2.9 °F 26% 30.00 in 10.0 mi WNW 8.1 mph - N/A   Clear
5:55 PM 25.0 °F 16.3 °F -4.0 °F 28% 30.00 in 10.0 mi WNW 8.1 mph - N/A   Clear
6:55 PM 21.9 °F 17.2 °F -2.0 °F 35% 29.98 in 10.0 mi WNW 3.5 mph - N/A   Clear
7:55 PM 25.0 °F - -0.0 °F 34% 29.96 in 10.0 mi Calm Calm - N/A   Mostly Cloudy
8:55 PM 24.1 °F - 6.1 °F 46% 29.94 in 10.0 mi Calm Calm - N/A   Overcast
9:55 PM 25.0 °F 18.1 °F 5.0 °F 43% 29.88 in 10.0 mi South 5.8 mph - N/A   Overcast
10:55 PM 26.1 °F 16.8 °F 7.0 °F 44% 29.83 in 10.0 mi South 9.2 mph - N/A   Overcast
11:55 PM 27.0 °F 16.7 °F 3.9 °F 37% 29.76 in 10.0 mi South 11.5 mph - N/A   Overcast